This demonstration page uses our WeatherBlox Daily Observations layout. Learn more.

Left ArrowRight Arrow

Hourly Observations for August 15, 2022

Temp ( °F °C ) Dew Point ( °F °C ) Humidity (%) Winds ( mph kmh ) Pressure ( in mb ) Visibility ( mi km ) Precip ( " mm )
12:52 am 00:52 Cloudy 71 21.7 62 16.7 73 73 ESE 9 15 29.97 1015 10 16 0.00 0.00
1:52 am 01:52 Cloudy 71 21.7 62 16.7 73 73 E 7 11 29.98 1015 10 16 0.00 0.00
2:52 am 02:52 Cloudy 69 20.6 63 17.2 81 81 ESE 6 9 29.99 1016 10 16 0.00 0.00
3:52 am 03:52 Cloudy 69 20.6 63 17.2 81 81 ESE 8 13 29.99 1016 10 16 0.00 0.00
4:52 am 04:52 Cloudy 69 20.6 63 17.2 81 81 ESE 6 9 29.99 1016 10 16 0.00 0.00
5:52 am 05:52 Cloudy 68 20 62 16.7 81 81 ESE 14 22 29.98 1015 10 16 0.00 0.00
6:48 am 06:48 Mostly Cloudy with Thunderstorms 68 20 64 18 88 88 E 7 11 30.01 1016 10 16 0.01 0.13
6:52 am 06:52 Cloudy with Thunderstorms 68 20 64 17.8 87 87 ENE 7 11 30.02 1017 10 16 0.01 0.13
7:52 am 07:52 Cloudy with Thunderstorms 66 18.9 65 18.3 96 96 E 8 13 30.05 1018 4 6 0.05 1.27
8:22 am 08:22 Cloudy with Nearby Thunderstorms 66 18.9 64 17.8 93 93 E 13 20 30.01 1016 10 16 0.04 1.02
8:40 am 08:40 Cloudy 66 18.9 64 17.8 93 93 ESE 9 15 30.02 1017 10 16 0.04 1.02
8:52 am 08:52 Cloudy 66 18.9 64 17.8 93 93 Calm 30.04 1017 10 16 0.04 1.02
9:41 am 09:41 Cloudy with Nearby Thunderstorms 66 18.9 65 18.3 96 96 ESE 12 19 30.02 1017 5 8 0.04 1.02
9:52 am 09:52 Cloudy with Light Rain 66 18.9 65 18.3 96 96 ESE 13 20 30.01 1016 5 8 0.05 1.27
10:52 am 10:52 Cloudy 67 19.4 65 18.3 93 93 SE 13 20 29.99 1016 10 16 0.01 0.25
11:52 am 11:52 Cloudy 68 20 66 18.9 93 93 SE 15 24 29.98 1015 10 16 0.01 0.13
12:52 pm 12:52 Cloudy with Light Rain 69 20.6 63 17.2 81 81 SE 9 15 30.00 1016 10 16 0.01 0.13
1:52 pm 13:52 Cloudy with Light Rain 70 21.1 65 18.3 84 84 ESE 13 20 29.99 1016 10 16 0.01 0.13
2:05 pm 14:05 Mostly Cloudy with Light Rain 70 21.1 65 18.3 84 84 SE 14 22 29.98 1015 10 16 0.01 0.13
2:52 pm 14:52 Cloudy 70 21.1 64 17.8 81 81 ESE 10 17 30.00 1016 10 16 0.01 0.13
3:52 pm 15:52 Cloudy with Light Rain 70 21.1 65 18.3 84 84 E 12 19 30.01 1016 10 16 0.01 0.13
4:52 pm 16:52 Cloudy with Light Rain 68 20 65 18.3 90 90 ENE 10 17 30.01 1016 10 16 0.01 0.25
5:52 pm 17:52 Cloudy with Light Rain 68 20 64 17.8 87 87 ENE 15 24 30.04 1017 10 16 0.01 0.25
6:52 pm 18:52 Cloudy with Light Rain 67 19.4 64 17.8 90 90 E 15 24 30.02 1017 10 16 0.01 0.25
7:52 pm 19:52 Cloudy 66 18.9 61 16.1 84 84 E 16 26 30.03 1017 10 16 0.01 0.13
8:52 pm 20:52 Cloudy 65 18.3 62 16.7 90 90 E 13 20 30.04 1017 10 16 0.01 0.13
9:52 pm 21:52 Cloudy 64 17.8 62 16.7 93 93 ESE 8 13 30.04 1017 10 16 0.00 0.00
10:52 pm 22:52 Cloudy 64 17.8 62 16.7 93 93 SE 9 15 30.05 1018 10 16 0.00 0.00
11:48 pm 23:48 Mostly Cloudy 64 18 63 17 94 94 SE 12 19 30.04 1017 10 16 0.00 0.00
11:52 pm 23:52 Mostly Cloudy 64 17.8 62 16.7 93 93 SE 12 19 30.04 1017 10 16 0.00 0.00

Powered by AerisWeather